DLR-TUBSAT

Last updated on Mon Sep 07 2026 00:02:44 GMT+0000 (Coordinated Universal Time)

1 25757U 99029B 26249.58356559 .00000029 00000+0 19113-4 0 9993 2 25757 98.6763 247.7917 0015370 101.8407 258.4512 14.52443429445065
UTC large
Height (km)
Speed (km/s)
/
Latitude / Longitude
Inclination (degrees)
Orbital Period (minutes)
Azimuth
Elevation
Range (km)
Doppler Factor

Next 0 passes for location: London (51.5072 / 0.1276)

No passes found over London.
DLR-TUBSAT